Terminal Aerodrome Forecast
Issued by NWS Portland, OR

Home | Current Version | Previous Version | Text Only | Print | Product List | Glossary On
Versions: 1 2 3 4 5 6 7 8 9 10 11 12 13 14 15 16 17 18 19 20 21 22 23 24 25 26 27 28 29 30 31 32 33 34
000
FTUS46 KPQR 201342 AAB
TAFAST
TAF AMD
KAST 201342Z 2014/2112 13006KT P6SM -SHRA BKN035 OVC050
     FM201900 28008KT P6SM OVC025
     FM210100 25005KT P6SM OVC015=

USA.gov is the U.S. government's official web portal to all federal, state and local government web resources and services.